Regional Weather Roundup
Issued by NWS Portland, ME

Home | Current Version | Previous Version | Text Only | Print | Product List | Glossary On
Versions: 1 2 3 4 5 6 7 8 9 10 11 12 13 14 15 16 17 18 19 20 21 22 23 24 25 26 27 28 29 30 31 32 33 34 35 36 37 38 39 40 41 42 43 44 45 46 47 48 49 50
000
ASUS41 KGYX 261605
RWRGYX
WEATHER ROUNDUP FOR MAINE AND NEW HAMPSHIRE
NATIONAL WEATHER SERVICE GRAY ME
1100 AM EST SUN FEB 26 2017

MEZ002-005-006-010-012-015-018-020-021-024-026-027-029-261700-
MAINE

CITY           SKY/WX    TMP DP  RH WIND       PRES   REMARKS
PORTLAND       MOSUNNY   39  19  44 W20G29    29.72R
SANFORD        MOSUNNY   37  17  44 NW20G26   29.75R
BAR HARBOR     CLOUDY    38  21  50 W10G21    29.63R
WISCASSET      SUNNY     41  17  38 W9G22     29.70R
ROCKLAND       PTSUNNY   40  22  48 NW14G26   29.66R
FRYEBURG       MOSUNNY   36  14  40 NW17G25   29.73R
LEWISTONAUBURN SUNNY     36  16  44 NW12G22   29.71R
AUGUSTA        PTSUNNY   35  15  44 W21G30    29.69R
WATERVILLE     PTSUNNY   37  16  42 W14G24    29.65R
BANGOR         PTSUNNY   36  17  46 W17G31    29.62R
GREENVILLE       N/A     28  18  66 NW9G25    29.54R
MILLINOCKET    CLOUDY    34  18  52 W13G23    29.57R
HOULTON        CLOUDY    34  23  64 W21G31    29.48R
PRESQUE ISLE   CLOUDY    36  19  50 W26G36    29.43
FRENCHVILLE    CLOUDY    33  25  72 W24G31    29.37R
CARIBOU        CLOUDY    36  21  54 W15G31    29.41R
$$

NHZ002-005-008-009-011-012-014-261700-
NEW HAMPSHIRE

CITY           SKY/WX    TMP DP  RH WIND       PRES   REMARKS
PORTSMOUTH     MOSUNNY   40  17  39 W15G26    29.76R
ROCHESTER      MOSUNNY   38  16  40 NW16G31   29.75R
NASHUA         PTSUNNY   39  17  41 NW20      29.82R
MANCHESTER     PTSUNNY   39  16  39 W16G31    29.80R
CONCORD        PTSUNNY   39  16  39 NW15G24   29.80R
LACONIA        CLOUDY    35  16  45 MISG      29.77R
PLYMOUTH       PTSUNNY   35  13  41 W18G26    29.77R
BERLIN         FLURRIES  29  16  58 W12G20    29.70R WCI  19
WHITEFIELD     CLOUDY    29  18  63 W18G29    29.75R WCI  16
JAFFREY        CLOUDY    33  14  45 W15G28    29.82R
KEENE          MOSUNNY   35  15  44 W16G30    29.86R
LEBANON        CLOUDY    36  16  44 W18G30    29.82R
MT WASHINGTON  SNOWSHWR   5   5 100 W68G79      N/A  VSB 1/16WCI -27
$$

VTZ005-007-008-261700-
VERMONT

CITY           SKY/WX    TMP DP  RH WIND       PRES   REMARKS
ST JOHNSBURY     N/A     29  17  61 MISG      29.79R
MONTPELIER     CLOUDY    28  14  55 NW13G22   29.83R WCI  17
BURLINGTON     MOSUNNY   32  15  49 W17G25    29.88R
$$

MAZ007-012-024-CTZ003-RIZ002-NYZ038-NYZ072-261700-
SOUTHERN NEW ENGLAND AND NY

CITY           SKY/WX    TMP DP  RH WIND       PRES   REMARKS
BOSTON         MOSUNNY   41  21  44 W21G32    29.82R
WORCESTER      CLOUDY    33  16  49 NW17G29   29.82R
NANTUCKET      MOSUNNY   43  23  45 W22G30    29.85R
PROVIDENCE     PTSUNNY   41  17  38 NW16G25   29.87R
HARTFORD       PTSUNNY   37  17  44 NW25G32   29.93R
ALBANY         PTSUNNY   34  14  43 NW25G36   29.98R
NEW YORK CITY  MOSUNNY   41  17  38 NW18G29   29.99R
$$

ANZ081-ANZ082-ANZ150-NHZ014-MEZ023>029-261700-
COASTAL MARINE OBSERVATIONS

STATION/POSITION TIME  TEMP    WIND        PRES    WAVE
                       AIR SEA DIR/SP/G            HT/PER
                 (UTC) (F)     (DEG/KT/KT) (MB)    (FT/S)
MOUNT DESERT ROC 1600   38                 1003.4R
MATINICUS ROCK   1500   38     290/ 24/ 26 1003.4R
ISLE OF SHOALS   1500   37     290/ 24/ 27 1006.7R
JEFFREYS LEDGE   1506      43                N/A     7/ 5
CASHES LEDGE BUO 1450   41 42              1004.3    8/ 7
GEORGES BANK BUO 1450   45 44              1006.3    9/10
$$

.............KEY..............
   WCI - WIND CHILL
   TC  - TEMPERATURE IN CELSIUS
   VSB - VISIBILITY IN MILES
   HX  - HEAT INDEX
   FAIR- INDICATES FEW OR NO CLOUDS BELOW 12,000 FT, WITH NO
         SIGNIFICANT WEATHER AND/OR OBSTRUCTIONS TO VISIBILITY.






USA.gov is the U.S. government's official web portal to all federal, state and local government web resources and services.